Weather reports worldwide

Advertisment
Storlien-Visjovalen A, Sweden (2207): temperature & dewpoint: 23.05.2020 00:00:00 - 29.05.2020 00:00:00 (CEST)Storlien-Visjovalen A, Sweden (2207): wind speed & gusts: 23.05.2020 00:00:00 - 29.05.2020 00:00:00 (CEST)Storlien-Visjovalen A, Sweden (2207): wind direction: 23.05.2020 00:00:00 - 29.05.2020 00:00:00 (CEST)Storlien-Visjovalen A, Sweden (2207): reduced air pressure: 23.05.2020 00:00:00 - 29.05.2020 00:00:00 (CEST)Storlien-Visjovalen A, Sweden (2207): visibility: 23.05.2020 00:00:00 - 29.05.2020 00:00:00 (CEST)Storlien-Visjovalen A, Sweden (2207): precipitation: 23.05.2020 00:00:00 - 29.05.2020 00:00:00 (CEST)
Date & Time tt [°C] td [°C] ff [km/h] ff [kn] fx [km/h] fx [kn] dd ppp [hPa] vv [km] rr [mm]
29.05.2020 00:00:00 3,4 1,2 11 6 27 14 W 1033,3 49 0,0
28.05.2020 23:00:00 3,5 1,2 15 8 29 16 W 1033,3 21 0,0
28.05.2020 22:00:00 3,9 1,3 14 7 30 16 W 1033,1 50 0,0
28.05.2020 21:00:00 3,8 1,7 11 6 26 14 W 1033,3 11 0,0
28.05.2020 20:00:00 3,8 2,0 13 7 30 16 W 1033,3 31 0,0
28.05.2020 19:00:00 4,4 1,8 14 8 25 14 W 1033,0 29 0,1
28.05.2020 18:00:00 4,6 1,6 10 6 20 11 W 1032,9 13 0,1
28.05.2020 17:00:00 4,5 2,2 11 6 30 16 W 1032,9 26 0,1
28.05.2020 16:00:00 4,2 2,1 16 9 32 18 W 1032,9 11 0,0
28.05.2020 15:00:00 4,9 1,0 17 9 32 17 W 1032,4 42 0,0
28.05.2020 14:00:00 4,9 2,4 14 8 37 20 W 1032,1 50 0,1
28.05.2020 13:00:00 4,9 0,8 18 10 37 20 W 1031,8 50 0,0
28.05.2020 12:00:00 3,6 1,2 17 9 34 19 W 1032,3 22 0,0
28.05.2020 11:00:00 4,9 0,8 18 10 36 20 W 1031,5 24 0,0
28.05.2020 10:00:00 3,6 0,8 17 9 41 22 W 1031,9 30 0,0
28.05.2020 09:00:00 3,4 0,4 19 10 35 19 W 1031,7 19 0,0
28.05.2020 08:00:00 3,1 0,7 16 9 35 19 W 1031,7 47 0,0
28.05.2020 07:00:00 2,9 0,8 16 9 31 17 W 1031,5 50 0,0
28.05.2020 06:00:00 2,3 0,8 16 8 29 16 W 1031,7 31 0,1
28.05.2020 05:00:00 2,2 1,0 12 6 32 17 W 1031,5 49 0,0
28.05.2020 04:00:00 1,9 0,9 15 8 35 19 W 1031,4 13 0,0
28.05.2020 03:00:00 2,4 1,2 16 9 37 20 W 1030,9 33 0,1
28.05.2020 02:00:00 2,2 1,2 21 11 41 22 W 1030,6 29 0,2
28.05.2020 01:00:00 2,2 1,0 20 11 42 23 W 1030,6 7 0,1
28.05.2020 00:00:00 2,3 1,0 22 12 33 18 W 1030,5 50 0,1
27.05.2020 23:00:00 2,4 1,7 12 7 25 13 W 1031,0 11 0,3
27.05.2020 22:00:00 2,7 1,5 15 8 30 16 W 1030,8 37 0,2
27.05.2020 21:00:00 3,2 1,6 18 10 39 21 WNW 1030,5 19 0,0
27.05.2020 20:00:00 3,3 1,7 18 10 39 21 W 1030,1 50 0,0
27.05.2020 19:00:00 4,0 1,9 19 10 38 21 W 1029,7 49 1,0
27.05.2020 18:00:00 3,7 2,2 11 6 32 17 W 1029,9 8 1,3
27.05.2020 17:00:00 4,9 1,6 16 9 31 17 W 1029,2 29 0,1
27.05.2020 16:00:00 5,6 1,3 14 7 31 17 W 1028,8 50 0,2
27.05.2020 15:00:00 4,9 1,7 16 9 44 24 WNW 1029,0 16 0,1
27.05.2020 14:00:00 5,1 1,0 21 11 39 21 WNW 1028,9 36 0,0
27.05.2020 13:00:00 7,4 0,1 9 5 19 10 SW 1027,9 50 0,0
27.05.2020 12:00:00 6,6 -0,4 11 6 24 13 WSW 1028,1 48 0,0
27.05.2020 11:00:00 7,6 -0,6 13 7 27 15 W 1027,6 34 0,0
27.05.2020 10:00:00 6,8 0,0 10 6 26 14 W 1027,9 41 0,0
27.05.2020 09:00:00 5,5 0,7 16 8 27 14 W 1028,5 41 0,0
27.05.2020 08:00:00 5,1 1,0 15 8 29 16 W 1028,8 47 -
27.05.2020 07:00:00 4,4 1,3 10 6 20 11 W 1029,1 38 0,0
27.05.2020 06:00:00 4,6 1,4 12 7 27 15 W 1029,0 33 0,0
27.05.2020 05:00:00 4,5 1,4 13 7 31 17 W 1029,5 44 0,0
27.05.2020 04:00:00 4,0 1,5 14 7 29 16 W 1029,7 47 0,0
27.05.2020 03:00:00 4,1 2,3 9 5 18 10 WSW 1029,8 28 0,0
27.05.2020 02:00:00 3,8 2,8 5 3 15 8 SW 1030,0 35 0,0
27.05.2020 01:00:00 3,6 2,4 5 3 16 9 SSW 1030,1 18 0,0
27.05.2020 00:00:00 3,9 3,0 4 2 35 19 W 1030,4 8 0,3
26.05.2020 23:00:00 4,3 3,1 16 9 31 17 WNW 1030,1 8 0,0
26.05.2020 22:00:00 6,0 4,5 19 10 31 17 NW 1028,9 45 0,0
26.05.2020 21:00:00 7,5 2,4 0 0 13 7 N 1027,6 50 0,0
26.05.2020 20:00:00 8,2 1,4 7 4 22 12 SSW 1027,6 50 0,0
26.05.2020 19:00:00 9,2 1,1 11 6 23 12 W 1027,2 50 0,0
26.05.2020 18:00:00 10,9 0,0 8 4 29 16 W 1026,9 50 0,0
26.05.2020 17:00:00 13,2 0,2 10 5 23 13 W 1026,6 41 0,0
26.05.2020 16:00:00 12,2 1,5 6 3 15 8 WSW 1026,9 50 0,0
26.05.2020 15:00:00 12,7 1,7 9 5 18 10 SW 1026,9 50 0,0
26.05.2020 14:00:00 12,3 1,6 10 5 20 11 SSW 1027,3 50 0,0
26.05.2020 13:00:00 11,9 2,4 9 5 21 11 WSW 1027,6 50 0,0
26.05.2020 12:00:00 10,9 1,7 11 6 22 12 SW 1027,8 50 0,0
26.05.2020 11:00:00 10,8 2,1 14 8 27 14 SSW 1028,0 50 0,0
26.05.2020 10:00:00 10,5 1,8 14 7 27 15 SW 1028,2 50 0,0
26.05.2020 09:00:00 9,5 1,9 13 7 25 14 SW 1028,4 50 0,0
26.05.2020 08:00:00 8,6 1,5 12 7 25 13 SW 1028,6 50 0,0
26.05.2020 07:00:00 8,8 1,2 11 6 32 17 SW 1028,6 50 0,0
26.05.2020 06:00:00 7,9 1,1 15 8 35 19 SSW 1028,8 50 0,0
26.05.2020 05:00:00 6,2 0,5 5 3 30 16 E 1029,4 50 0,0
26.05.2020 04:00:00 7,3 1,2 13 7 25 14 SW 1029,3 50 0,0
26.05.2020 03:00:00 1,1 -1,8 3 2 9 5 SW 1031,5 50 0,0
26.05.2020 02:00:00 1,1 0,1 3 2 9 5 E 1032,1 50 0,0
26.05.2020 01:00:00 0,4 -0,9 2 1 4 2 WNW 1032,3 50 0,0
26.05.2020 00:00:00 0,7 -1,1 2 1 - - SW 1032,5 50 0,0
25.05.2020 23:00:00 2,3 -0,6 0 0 4 2 N 1032,6 50 0,0
25.05.2020 22:00:00 5,7 0,3 0 0 5 3 N 1031,5 50 0,0
25.05.2020 21:00:00 8,8 2,1 0 0 6 4 N 1030,6 50 0,0
25.05.2020 20:00:00 9,7 1,8 4 2 11 6 SSW 1030,4 50 0,0
25.05.2020 19:00:00 10,1 2,2 5 3 14 8 SW 1030,4 50 0,0
25.05.2020 18:00:00 11,1 2,4 6 3 16 8 WSW 1030,1 50 0,0
25.05.2020 17:00:00 10,6 2,2 5 3 - - SW 1030,1 50 0,0
25.05.2020 16:00:00 - - - - 11 6 - - - -
25.05.2020 15:00:00 10,0 3,9 4 2 12 7 NE 1030,4 46 0,0
25.05.2020 14:00:00 8,3 3,9 5 3 15 8 NNW 1030,8 43 0,0
25.05.2020 13:00:00 8,4 3,6 9 5 17 9 WNW 1030,3 50 0,0
25.05.2020 12:00:00 8,2 3,3 6 3 16 9 W 1030,0 50 0,0
25.05.2020 11:00:00 7,3 3,5 7 4 21 11 SW 1029,5 18 0,0
25.05.2020 10:00:00 6,4 3,4 4 2 15 8 SW 1029,1 11 0,0
25.05.2020 09:00:00 6,9 2,8 6 4 18 10 SW 1028,2 50 0,0
25.05.2020 08:00:00 5,9 3,1 2 1 11 6 NW 1027,6 50 0,0
25.05.2020 07:00:00 5,3 4,0 0 0 6 3 N 1026,8 50 0,0
25.05.2020 06:00:00 3,9 3,0 3 1 6 3 ESE 1026,3 50 0,0
25.05.2020 05:00:00 4,4 3,1 5 3 11 6 WNW 1025,4 33 0,0
25.05.2020 04:00:00 3,9 2,7 4 2 11 6 NNW 1024,6 33 0,1
25.05.2020 03:00:00 5,1 3,3 5 3 12 6 NW 1023,0 50 0,0
25.05.2020 02:00:00 4,9 2,8 4 2 14 7 WSW 1022,1 50 0,0
25.05.2020 01:00:00 3,1 0,8 4 2 10 5 WNW 1021,6 50 0,0
25.05.2020 00:00:00 2,8 0,7 4 2 9 5 W 1020,4 50 0,0
24.05.2020 23:00:00 3,7 1,2 4 2 9 5 NNW 1019,0 50 0,0
24.05.2020 22:00:00 6,0 2,1 5 3 11 6 S 1017,4 50 0,0
24.05.2020 21:00:00 6,9 2,2 5 3 9 5 SW 1016,3 50 0,0
24.05.2020 20:00:00 7,6 2,3 6 3 11 6 SSW 1015,0 50 0,0
24.05.2020 19:00:00 8,0 2,2 3 2 11 6 SSW 1013,7 50 0,0
24.05.2020 18:00:00 9,3 2,4 4 2 10 5 W 1012,5 50 0,0
24.05.2020 17:00:00 9,4 2,5 3 2 13 7 SE 1011,7 50 0,0
24.05.2020 16:00:00 10,7 3,0 5 3 13 7 SE 1010,5 39 0,0
24.05.2020 15:00:00 8,5 1,9 4 2 24 13 SW 1010,4 50 0,0
24.05.2020 14:00:00 9,1 1,5 9 5 23 12 S 1009,1 33 0,0
24.05.2020 13:00:00 8,4 1,8 13 7 29 15 S 1008,7 44 0,0
24.05.2020 12:00:00 7,2 1,5 18 10 31 17 SE 1008,5 50 0,0
24.05.2020 11:00:00 7,2 1,1 15 8 34 18 SE 1007,8 50 0,0
24.05.2020 10:00:00 6,8 0,9 18 10 36 19 S 1007,3 50 0,0
24.05.2020 09:00:00 6,3 1,0 21 11 37 20 SSE 1007,0 50 0,0
24.05.2020 08:00:00 6,0 0,9 17 9 30 16 SE 1006,8 50 0,0
24.05.2020 07:00:00 5,4 0,4 7 4 21 12 E 1006,7 50 0,0
24.05.2020 06:00:00 4,5 0,8 10 5 23 13 ESE 1007,0 50 0,0
24.05.2020 05:00:00 4,6 1,3 14 7 26 14 SE 1006,6 50 0,0
24.05.2020 04:00:00 3,9 0,4 8 4 29 15 SSE 1007,0 50 0,0
24.05.2020 03:00:00 4,7 0,8 14 8 37 20 S 1006,8 50 0,0
24.05.2020 02:00:00 4,5 1,5 24 13 37 20 SE 1007,1 50 0,0
24.05.2020 01:00:00 5,0 0,9 8 4 15 8 SE 1007,8 50 0,0
24.05.2020 00:00:00 4,7 1,2 4 2 36 20 E 1007,9 50 0,0
23.05.2020 23:00:00 5,9 1,3 17 9 37 20 S 1007,0 50 0,0
23.05.2020 22:00:00 7,0 1,3 23 12 41 22 SSE 1006,9 50 0,0
23.05.2020 21:00:00 7,1 1,8 17 9 29 15 S 1006,6 46 0,0
23.05.2020 20:00:00 6,8 1,5 14 7 36 20 S 1007,2 50 0,0
23.05.2020 19:00:00 7,2 2,1 24 13 45 24 SSE 1007,2 49 0,0
23.05.2020 18:00:00 8,5 1,4 11 6 25 14 SSE 1007,4 50 0,0
23.05.2020 17:00:00 8,8 1,2 16 9 30 16 SSE 1007,4 50 0,0
23.05.2020 16:00:00 9,2 0,9 12 7 33 18 SE 1007,6 45 0,0
23.05.2020 15:00:00 9,6 2,2 11 6 34 18 S 1007,6 39 0,0
23.05.2020 14:00:00 7,8 1,2 21 11 40 22 SSW 1008,0 50 0,0
23.05.2020 13:00:00 7,6 1,7 16 9 37 20 S 1008,0 49 0,0
23.05.2020 12:00:00 7,3 1,6 20 11 38 21 SSW 1007,9 43 0,0
23.05.2020 11:00:00 7,8 1,4 20 11 37 20 S 1007,3 47 0,0
23.05.2020 10:00:00 7,3 1,4 23 12 52 28 S 1007,2 50 0,0
23.05.2020 09:00:00 7,5 0,7 16 8 40 22 SSE 1007,2 50 0,0
23.05.2020 08:00:00 6,7 1,4 17 9 39 21 SE 1007,6 50 0,0
23.05.2020 07:00:00 5,5 2,0 18 10 39 21 ESE 1007,9 50 0,0
23.05.2020 06:00:00 6,0 2,1 16 8 56 30 SSE 1008,0 50 0,0
23.05.2020 05:00:00 5,8 1,7 35 19 59 32 SSE 1008,2 50 0,0
23.05.2020 04:00:00 6,2 1,9 16 8 36 20 SSE 1009,5 50 0,2
23.05.2020 03:00:00 7,1 2,6 24 13 46 25 SE 1010,2 47 0,0
23.05.2020 02:00:00 7,3 2,0 20 11 38 21 S 1010,1 50 0,0
23.05.2020 01:00:00 7,6 1,7 14 8 39 21 S 1010,5 50 0,0
23.05.2020 00:00:00 7,8 0,0 18 10 49 26 SE 1011,0 50 0,0

tt = temperature
td = dewpoint
ff = wind speed
fx = gusts
dd = wind direction
ppp = reduced air pressure
vv = visibility
rr = precipitation

Next stations